Location: Piedmont
(45.8748°N, 74.1254°W)
Time: 14:37:12
(UTC+00:00)

N. Korean satellite - Pass Details

Date: 07 December 2021
Orbit: 446 x 491 km, 97.3° (Epoch: 18 January)

Event Time Altitude Azimuth Distance (km) Brightness Sun altitude
Rises 09:35:37 0° 24° (NNE) 2,462 10.4 -28.4°
Reaches altitude 10° 09:37:54 10° 38° (NE) 1,582 9.5 -28.0°
Maximum altitude 09:40:46 25° 95° (E) 943 8.7 -27.5°
Drops below altitude 10° 09:43:36 10° 153° (SSE) 1,571 9.5 -27.0°
Sets 09:45:52 0° 167° (SSE) 2,440 10.4 -26.7°
